Find STARLINK-36961

NORAD ID: 68900 Constellation: starlink operational
LEOCIRCULARRETROGRADE

リアルタイム位置

3D地球を読み込み中...

STARLINK-36961について

説明を読み込み中...

次回通過

Passes for default location (London). Set your location on the main map for personalized predictions.

高度履歴

Loading altitude history...

軌道要素

1 68900U 26097F 26125.50001156 -.02243112 13953-2 -59936-2 0 9995
2 68900 97.2877 320.4880 0001571 84.7554 132.6319 15.94671185 2045
Epoch: May 5, 2026 • Age: 8 hours